Location: Berkeley
(37.8716°N, 122.2727°W)
Time: 11:04:34
(UTC-07:00)

NOAA 18 - Visible Passes

Search period start: 25 April 2019 00:00
Search period end: 05 May 2019 00:00
Orbit: 841 x 861 km, 99.1° (Epoch: 24 April)

Date Brightness Start Highest point End Pass type
(mag) Time Alt. Az. Time Alt. Az. Time Alt. Az.
25 Apr 5.4 20:45:21 10° SSE 20:50:39 55° ENE 20:56:02 10° N visible
25 Apr 7.5 22:28:04 10° SW 22:31:38 18° W 22:35:14 10° NW visible
26 Apr 5.7 20:33:52 10° SE 20:39:00 43° ENE 20:44:11 10° N visible
26 Apr 7.2 22:15:34 10° SW 22:19:48 23° W 22:24:04 10° NW visible
27 Apr 6.0 20:22:30 10° SE 20:27:22 34° ENE 20:32:17 10° N visible
27 Apr 6.9 22:03:18 10° SSW 22:08:00 29° W 22:12:45 10° NW visible
28 Apr 6.5 21:51:11 10° SSW 21:56:13 37° W 22:01:19 10° NNW visible
29 Apr 6.0 21:39:11 10° S 21:44:27 48° W 21:49:47 10° NNW visible
30 Apr 5.6 21:27:17 10° S 21:32:42 63° WSW 21:38:11 10° NNW visible
01 May 5.3 21:15:30 10° SSE 21:20:58 80° WSW 21:26:31 10° NNW visible
02 May 5.2 21:03:48 10° SSE 21:09:16 80° ENE 21:14:49 10° NNW visible
02 May 7.8 22:48:45 10° WSW 22:50:31 11° W 22:52:17 10° WNW visible
03 May 5.3 20:52:11 10° SSE 20:57:35 63° ENE 21:03:03 10° N visible
03 May 7.6 22:35:30 10° SW 22:38:39 15° W 22:41:49 10° WNW visible
04 May 5.5 20:40:40 10° SE 20:45:55 49° ENE 20:51:14 10° N visible
04 May 7.4 22:22:52 10° SW 22:26:48 20° W 22:30:48 10° NW visible
